Location: site
(53.0000°N, 23.0500°E)
Time: 22:17:41
(UTC+01:00)

SAOCOM 1-A - Pass Details

Date: 20 January 2020
Orbit: 621 x 623 km, 97.9° (Epoch: 24 February)

Event Time Altitude Azimuth Distance (km) Brightness Sun altitude
Rises 04:47:57 0° 169° (S) 2,894 ? -23.6°
Reaches altitude 10° 04:50:08 10° 172° (S) 1,992 ? -23.3°
Maximum altitude 04:54:28 72° 257° (WSW) 660 ? -22.6°
Enters shadow 04:54:34 72° 270° (W) 662 ? -22.6°
